• In Portugal
  • List of Countries
  • For 7 days
  • Water Temperature
  • Satellite Maps
  • Weather Map
  • Weather Widgets
  • user-avatar
    Login

    Hourly Weather Bucznik

    Today, 18 October, Thursday

    Time Temperature Precipitation Wind Pressure Humidity
    00:00 +13°C° 0 mm 2 mps 754 mmHg 60%
    01:00 +12°C° 0 mm 2 mps 754 mmHg 61%
    02:00 +12°C° 0 mm 2 mps 754 mmHg 62%
    03:00 +12°C° 0 mm 2 mps 754 mmHg 63%
    04:00 +12°C° 0 mm 2 mps 754 mmHg 64%
    05:00 +12°C° 0 mm 2 mps 754 mmHg 65%
    06:00 +12°C° 0 mm 2 mps 754 mmHg 66%
    07:00 +12°C° 0 mm 2 mps 753 mmHg 67%
    08:00 +13°C° 0 mm 2 mps 753 mmHg 61%
    09:00 +15°C° 0 mm 2 mps 753 mmHg 55%
    10:00 +17°C° 0 mm 2 mps 753 mmHg 50%
    11:00 +18°C° 0 mm 2 mps 753 mmHg 48%
    12:00 +20°C° 0 mm 1 mps 753 mmHg 45%
    13:00 +21°C° 0 mm 1 mps 753 mmHg 43%
    14:00 +20°C° 0 mm 1 mps 753 mmHg 47%
    15:00 +19°C° 0 mm 1 mps 753 mmHg 51%
    16:00 +19°C° 0 mm 1 mps 753 mmHg 55%
    17:00 +16°C° 0 mm 1 mps 753 mmHg 59%
    18:00 +15°C° 0 mm 1 mps 753 mmHg 63%
    19:00 +14°C° 0 mm 1 mps 753 mmHg 67%
    20:00 +14°C° 0 mm 2 mps 753 mmHg 70%
    21:00 +13°C° 0 mm 2 mps 753 mmHg 74%
    22:00 +12°C° 0 mm 2 mps 753 mmHg 78%
    23:00 +12°C° 0 mm 2 mps 754 mmHg 82%

    Tomorrow, 19 October, Friday

    Time Temperature Precipitation Wind Pressure Humidity
    00:00 +12°C° 0 mm 2 mps 754 mmHg 86%
    01:00 +10°C° 0 mm 2 mps 754 mmHg 89%
    02:00 +10°C° 0 mm 2 mps 754 mmHg 92%
    03:00 +10°C° 0 mm 2 mps 754 mmHg 94%
    04:00 +10°C° 0 mm 2 mps 754 mmHg 96%
    05:00 +10°C° 0 mm 2 mps 755 mmHg 95%
    06:00 +10°C° 0 mm 2 mps 755 mmHg 95%
    07:00 +10°C° 0 mm 3 mps 755 mmHg 94%
    08:00 +11°C° 0 mm 3 mps 756 mmHg 85%
    09:00 +12°C° 0 mm 3 mps 756 mmHg 76%
    10:00 +14°C° 0 mm 3 mps 756 mmHg 67%
    11:00 +14°C° 0 mm 3 mps 756 mmHg 62%
    12:00 +14°C° 0 mm 3 mps 756 mmHg 57%
    13:00 +16°C° 0 mm 3 mps 756 mmHg 52%
    14:00 +14°C° 0 mm 3 mps 756 mmHg 56%
    15:00 +13°C° 0 mm 3 mps 756 mmHg 59%
    16:00 +12°C° 0 mm 3 mps 756 mmHg 63%
    17:00 +12°C° 0 mm 2 mps 757 mmHg 70%
    18:00 +10°C° 0 mm 2 mps 757 mmHg 76%
    19:00 +8°C° 0 mm 2 mps 757 mmHg 83%
    20:00 +9°C° 0 mm 1 mps 757 mmHg 85%
    21:00 +8°C° 0 mm 1 mps 758 mmHg 86%
    22:00 +7°C° 0 mm 0 mps 758 mmHg 88%
    23:00 +8°C° 0 mm 1 mps 758 mmHg 88%

    Day after tomorrow, 20 October, Saturday

    Time Temperature Precipitation Wind Pressure Humidity
    00:00 +8°C° 0 mm 1 mps 758 mmHg 88%
    01:00 +8°C° 0 mm 1 mps 758 mmHg 88%
    02:00 +7°C° 0 mm 1 mps 758 mmHg 88%
    03:00 +7°C° 0 mm 1 mps 758 mmHg 88%
    04:00 +6°C° 0 mm 2 mps 758 mmHg 89%
    05:00 +6°C° 0 mm 2 mps 758 mmHg 89%
    06:00 +6°C° 0 mm 2 mps 759 mmHg 90%
    07:00 +6°C° 0 mm 2 mps 759 mmHg 90%
    08:00 +8°C° 0 mm 2 mps 759 mmHg 84%
    09:00 +9°C° 0 mm 3 mps 759 mmHg 77%
    10:00 +11°C° 0 mm 3 mps 760 mmHg 71%
    11:00 +11°C° 0 mm 3 mps 760 mmHg 69%
    12:00 +12°C° 0 mm 3 mps 760 mmHg 68%
    13:00 +12°C° 0 mm 4 mps 760 mmHg 67%
    14:00 +12°C° 0 mm 4 mps 760 mmHg 67%
    15:00 +11°C° 0 mm 4 mps 760 mmHg 67%
    16:00 +11°C° 0 mm 4 mps 760 mmHg 67%
    17:00 +10°C° 0 mm 4 mps 760 mmHg 70%
    18:00 +8°C° 0 mm 4 mps 760 mmHg 73%
    19:00 +8°C° 0 mm 4 mps 760 mmHg 76%
    20:00 +8°C° 0 mm 4 mps 760 mmHg 77%
    21:00 +8°C° 0 mm 4 mps 760 mmHg 78%
    22:00 +10°C° 0 mm 4 mps 760 mmHg 79%
    23:00 +8°C° 0 mm 4 mps 760 mmHg 81%

    21 October, Sunday

    Time Temperature Precipitation Wind Pressure Humidity
    00:00 +9°C° 0 mm 3 mps 760 mmHg 83%
    01:00 +9°C° 0 mm 3 mps 760 mmHg 86%
    02:00 +8°C° 0 mm 3 mps 760 mmHg 88%
    03:00 +8°C° 0 mm 3 mps 760 mmHg 90%
    04:00 +7°C° 0 mm 3 mps 760 mmHg 93%
    05:00 +7°C° 0 mm 2 mps 760 mmHg 93%
    06:00 +7°C° 0 mm 2 mps 760 mmHg 94%
    07:00 +7°C° 0 mm 2 mps 760 mmHg 95%
    08:00 +8°C° 0 mm 2 mps 760 mmHg 87%
    09:00 +10°C° 0 mm 2 mps 760 mmHg 80%
    10:00 +12°C° 0 mm 3 mps 760 mmHg 73%
    11:00 +12°C° 0 mm 3 mps 760 mmHg 70%
    12:00 +13°C° 0 mm 3 mps 760 mmHg 66%
    13:00 +13°C° 0 mm 3 mps 760 mmHg 62%
    14:00 +14°C° 0 mm 2 mps 760 mmHg 66%
    15:00 +13°C° 0 mm 2 mps 759 mmHg 70%
    16:00 +13°C° 0 mm 2 mps 759 mmHg 74%
    17:00 +12°C° 0 mm 2 mps 759 mmHg 79%
    18:00 +10°C° 0 mm 2 mps 759 mmHg 84%
    19:00 +9°C° 0 mm 2 mps 759 mmHg 89%
    20:00 +9°C° 0 mm 2 mps 759 mmHg 90%
    21:00 +9°C° 0 mm 2 mps 758 mmHg 91%
    22:00 +9°C° 0 mm 2 mps 758 mmHg 93%
    23:00 +9°C° 0 mm 3 mps 758 mmHg 91%

    22 October, Monday

    Time Temperature Precipitation Wind Pressure Humidity
    00:00 +9°C° 0 mm 3 mps 758 mmHg 90%
    01:00 +9°C° 0 mm 3 mps 758 mmHg 89%
    02:00 +8°C° 0 mm 4 mps 757 mmHg 86%
    03:00 +8°C° 0 mm 4 mps 757 mmHg 84%
    04:00 +8°C° 0 mm 4 mps 757 mmHg 82%
    05:00 +8°C° 0 mm 4 mps 756 mmHg 79%
    06:00 +8°C° 0 mm 4 mps 756 mmHg 75%
    07:00 +8°C° 0 mm 5 mps 756 mmHg 72%
    08:00 +8°C° 0.2 mm 5 mps 756 mmHg 73%
    09:00 +9°C° 0.2 mm 5 mps 756 mmHg 74%
    10:00 +9°C° 0.2 mm 5 mps 756 mmHg 75%
    11:00 +9°C° 0.2 mm 5 mps 756 mmHg 72%
    12:00 +10°C° 0.2 mm 5 mps 756 mmHg 69%
    13:00 +12°C° 0.2 mm 5 mps 756 mmHg 66%
    14:00 +12°C° 0 mm 4 mps 756 mmHg 67%
    15:00 +11°C° 0 mm 4 mps 756 mmHg 68%
    16:00 +11°C° 0 mm 4 mps 756 mmHg 69%
    17:00 +10°C° 0 mm 4 mps 757 mmHg 70%
    18:00 +8°C° 0 mm 4 mps 757 mmHg 72%
    19:00 +7°C° 0 mm 4 mps 757 mmHg 73%
    20:00 +6°C° 0 mm 4 mps 756 mmHg 75%
    21:00 +7°C° 0 mm 3 mps 756 mmHg 77%
    22:00 +5°C° 0 mm 3 mps 756 mmHg 80%
    23:00 +5°C° 0 mm 3 mps 755 mmHg 82%

    23 October, Tuesday

    Time Temperature Precipitation Wind Pressure Humidity
    00:00 +5°C° 0 mm 3 mps 755 mmHg 83%
    01:00 +4°C° 0 mm 3 mps 754 mmHg 85%
    02:00 +5°C° 0 mm 4 mps 753 mmHg 84%
    03:00 +5°C° 0 mm 4 mps 753 mmHg 84%
    04:00 +5°C° 0 mm 4 mps 752 mmHg 83%
    05:00 +5°C° 0.1 mm 4 mps 751 mmHg 82%
    06:00 +5°C° 0.1 mm 5 mps 750 mmHg 81%
    07:00 +5°C° 0.1 mm 5 mps 749 mmHg 80%
    08:00 +5°C° 0 mm 6 mps 748 mmHg 76%
    09:00 +6°C° 0 mm 7 mps 748 mmHg 73%
    10:00 +6°C° 0 mm 7 mps 747 mmHg 69%
    11:00 +6°C° 0.1 mm 7 mps 747 mmHg 71%
    12:00 +6°C° 0.1 mm 7 mps 746 mmHg 73%
    13:00 +7°C° 0.1 mm 6 mps 746 mmHg 75%
    14:00 +7°C° 0.2 mm 6 mps 746 mmHg 75%
    15:00 +7°C° 0.2 mm 5 mps 746 mmHg 74%
    16:00 +7°C° 0.2 mm 4 mps 746 mmHg 74%
    17:00 +6°C° 0.1 mm 4 mps 746 mmHg 75%
    18:00 +6°C° 0.1 mm 4 mps 746 mmHg 75%
    19:00 +5°C° 0.1 mm 4 mps 746 mmHg 76%
    20:00 +4°C° 0 mm 4 mps 746 mmHg 77%
    21:00 +4°C° 0 mm 4 mps 747 mmHg 78%
    22:00 +3°C° 0 mm 4 mps 747 mmHg 78%
    23:00 +3°C° 0.1 mm 3 mps 747 mmHg 80%
    Show more